Stündliche Wetter Abbakumovo

Heute, 8 März, Montag

Zeit Temperatur Niederschläge Wind Luftdruck Luftfeuchtigkeit
00:00 -11°C° 0.1 mm 4 m/S 725 mmHg 88%
01:00 -12°C° 0.1 mm 5 m/S 725 mmHg 88%
02:00 -12°C° 0 mm 5 m/S 726 mmHg 88%
03:00 -12°C° 0.1 mm 4 m/S 726 mmHg 89%
04:00 -12°C° 0.1 mm 4 m/S 727 mmHg 89%
05:00 -12°C° 0.1 mm 4 m/S 727 mmHg 90%
06:00 -12°C° 0 mm 4 m/S 728 mmHg 90%
07:00 -12°C° 0 mm 4 m/S 729 mmHg 89%
08:00 -12°C° 0 mm 4 m/S 730 mmHg 89%
09:00 -11°C° 0 mm 4 m/S 731 mmHg 86%
10:00 -10°C° 0 mm 4 m/S 732 mmHg 83%
11:00 -10°C° 0 mm 4 m/S 732 mmHg 80%
12:00 -10°C° 0 mm 4 m/S 733 mmHg 79%
13:00 -9°C° 0 mm 4 m/S 733 mmHg 79%
14:00 -9°C° 0 mm 4 m/S 734 mmHg 78%
15:00 -10°C° 0 mm 4 m/S 734 mmHg 81%
16:00 -11°C° 0 mm 4 m/S 735 mmHg 83%
17:00 -12°C° 0 mm 3 m/S 736 mmHg 86%
18:00 -13°C° 0 mm 3 m/S 736 mmHg 88%
19:00 -13°C° 0 mm 3 m/S 737 mmHg 91%
20:00 -13°C° 0 mm 2 m/S 737 mmHg 93%
21:00 -14°C° 0 mm 2 m/S 738 mmHg 94%
22:00 -15°C° 0 mm 2 m/S 738 mmHg 95%
23:00 -16°C° 0 mm 2 m/S 739 mmHg 96%

Morgen, 9 März, Dienstag

Zeit Temperatur Niederschläge Wind Luftdruck Luftfeuchtigkeit
00:00 -16°C° 0 mm 2 m/S 739 mmHg 97%
01:00 -17°C° 0 mm 2 m/S 740 mmHg 97%
02:00 -18°C° 0 mm 2 m/S 740 mmHg 97%
03:00 -18°C° 0 mm 2 m/S 740 mmHg 97%
04:00 -19°C° 0 mm 2 m/S 740 mmHg 97%
05:00 -19°C° 0 mm 2 m/S 741 mmHg 97%
06:00 -19°C° 0 mm 2 m/S 741 mmHg 95%
07:00 -18°C° 0 mm 2 m/S 742 mmHg 93%
08:00 -18°C° 0 mm 2 m/S 742 mmHg 92%
09:00 -16°C° 0 mm 2 m/S 742 mmHg 87%
10:00 -15°C° 0 mm 2 m/S 743 mmHg 82%
11:00 -14°C° 0 mm 2 m/S 743 mmHg 77%
12:00 -13°C° 0 mm 2 m/S 743 mmHg 74%
13:00 -14°C° 0 mm 3 m/S 744 mmHg 71%
14:00 -13°C° 0 mm 3 m/S 744 mmHg 68%
15:00 -13°C° 0 mm 2 m/S 744 mmHg 73%
16:00 -14°C° 0 mm 2 m/S 744 mmHg 77%
17:00 -14°C° 0 mm 2 m/S 744 mmHg 82%
18:00 -16°C° 0 mm 2 m/S 745 mmHg 85%
19:00 -15°C° 0 mm 1 m/S 745 mmHg 89%
20:00 -16°C° 0 mm 1 m/S 746 mmHg 92%
21:00 -17°C° 0 mm 1 m/S 746 mmHg 93%
22:00 -18°C° 0 mm 1 m/S 746 mmHg 94%
23:00 -18°C° 0 mm 1 m/S 747 mmHg 96%

übermorgen, 10 März, Mittwoch

Zeit Temperatur Niederschläge Wind Luftdruck Luftfeuchtigkeit
00:00 -19°C° 0 mm 1 m/S 747 mmHg 96%
01:00 -20°C° 0 mm 1 m/S 747 mmHg 96%
02:00 -20°C° 0 mm 1 m/S 748 mmHg 97%
03:00 -21°C° 0 mm 1 m/S 748 mmHg 96%
04:00 -21°C° 0 mm 1 m/S 748 mmHg 96%
05:00 -25°C° 0 mm 2 m/S 748 mmHg 95%
06:00 -21°C° 0 mm 1 m/S 749 mmHg 91%
07:00 -21°C° 0 mm 1 m/S 749 mmHg 88%
08:00 -20°C° 0 mm 1 m/S 750 mmHg 84%
09:00 -18°C° 0 mm 1 m/S 750 mmHg 76%
10:00 -15°C° 0 mm 1 m/S 751 mmHg 68%
11:00 -13°C° 0 mm 1 m/S 751 mmHg 60%
12:00 -12°C° 0 mm 1 m/S 751 mmHg 59%
13:00 -11°C° 0 mm 1 m/S 751 mmHg 58%
14:00 -10°C° 0 mm 1 m/S 751 mmHg 57%
15:00 -11°C° 0 mm 1 m/S 751 mmHg 62%
16:00 -12°C° 0 mm 0 m/S 751 mmHg 67%
17:00 -13°C° 0 mm 0 m/S 750 mmHg 72%
18:00 -14°C° 0 mm 0 m/S 751 mmHg 75%
19:00 -15°C° 0 mm 0 m/S 751 mmHg 78%
20:00 -16°C° 0 mm 0 m/S 751 mmHg 80%
21:00 -16°C° 0 mm 0 m/S 751 mmHg 82%
22:00 -17°C° 0 mm 0 m/S 752 mmHg 84%
23:00 -17°C° 0 mm 0 m/S 752 mmHg 85%

11 März, Donnerstag

Zeit Temperatur Niederschläge Wind Luftdruck Luftfeuchtigkeit
00:00 -17°C° 0 mm 1 m/S 752 mmHg 86%
01:00 -17°C° 0 mm 1 m/S 752 mmHg 87%
02:00 -17°C° 0 mm 1 m/S 752 mmHg 87%
03:00 -18°C° 0 mm 1 m/S 752 mmHg 87%
04:00 -18°C° 0 mm 1 m/S 751 mmHg 88%
05:00 -18°C° 0 mm 1 m/S 751 mmHg 88%
06:00 -17°C° 0 mm 1 m/S 751 mmHg 84%
07:00 -16°C° 0 mm 1 m/S 751 mmHg 81%
08:00 -18°C° 0 mm 2 m/S 751 mmHg 78%
09:00 -16°C° 0 mm 2 m/S 751 mmHg 73%
10:00 -14°C° 0 mm 2 m/S 751 mmHg 68%
11:00 -13°C° 0 mm 3 m/S 751 mmHg 63%
12:00 -12°C° 0 mm 3 m/S 750 mmHg 62%
13:00 -10°C° 0 mm 3 m/S 750 mmHg 61%
14:00 -9°C° 0 mm 3 m/S 750 mmHg 60%
15:00 -10°C° 0 mm 3 m/S 749 mmHg 65%
16:00 -12°C° 0 mm 3 m/S 749 mmHg 70%
17:00 -13°C° 0 mm 3 m/S 748 mmHg 75%
18:00 -13°C° 0 mm 3 m/S 748 mmHg 77%
19:00 -14°C° 0 mm 3 m/S 748 mmHg 79%
20:00 -16°C° 0 mm 4 m/S 747 mmHg 82%
21:00 -17°C° 0 mm 4 m/S 747 mmHg 81%
22:00 -17°C° 0 mm 4 m/S 746 mmHg 81%
23:00 -18°C° 0 mm 4 m/S 746 mmHg 81%

12 März, Freitag

Zeit Temperatur Niederschläge Wind Luftdruck Luftfeuchtigkeit
00:00 -18°C° 0 mm 4 m/S 745 mmHg 81%
01:00 -18°C° 0 mm 4 m/S 745 mmHg 81%
02:00 -18°C° 0 mm 4 m/S 744 mmHg 82%
03:00 -19°C° 0 mm 5 m/S 743 mmHg 83%
04:00 -19°C° 0 mm 5 m/S 743 mmHg 83%
05:00 -18°C° 0 mm 5 m/S 742 mmHg 84%
06:00 -18°C° 0 mm 5 m/S 741 mmHg 83%
07:00 -17°C° 0 mm 6 m/S 740 mmHg 81%
08:00 -16°C° 0 mm 6 m/S 740 mmHg 80%
09:00 -15°C° 0.1 mm 6 m/S 739 mmHg 83%
10:00 -14°C° 0.1 mm 7 m/S 738 mmHg 86%
11:00 -13°C° 0.1 mm 7 m/S 738 mmHg 89%
12:00 -12°C° 0.4 mm 7 m/S 737 mmHg 89%
13:00 -11°C° 0.4 mm 7 m/S 736 mmHg 89%
14:00 -9°C° 0.4 mm 7 m/S 736 mmHg 89%
15:00 -9°C° 0.3 mm 7 m/S 735 mmHg 90%
16:00 -8°C° 0.3 mm 6 m/S 734 mmHg 91%
17:00 -8°C° 0.3 mm 6 m/S 734 mmHg 92%
18:00 -6°C° 0.4 mm 5 m/S 734 mmHg 93%
19:00 -6°C° 0.4 mm 5 m/S 733 mmHg 94%
20:00 -5°C° 0.4 mm 4 m/S 733 mmHg 95%
21:00 -5°C° 0.1 mm 4 m/S 733 mmHg 95%
22:00 -4°C° 0.1 mm 3 m/S 733 mmHg 95%
23:00 -4°C° 0.1 mm 3 m/S 733 mmHg 96%

13 März, Samstag

Zeit Temperatur Niederschläge Wind Luftdruck Luftfeuchtigkeit
00:00 -4°C° 0.1 mm 3 m/S 733 mmHg 96%
01:00 -2°C° 0.1 mm 3 m/S 733 mmHg 96%
02:00 -2°C° 0.1 mm 2 m/S 733 mmHg 97%
03:00 -2°C° 0 mm 3 m/S 734 mmHg 95%
04:00 -1°C° 0 mm 3 m/S 734 mmHg 94%
05:00 -1°C° 0 mm 3 m/S 734 mmHg 93%
06:00 -1°C° 0 mm 3 m/S 734 mmHg 92%
07:00 -2°C° 0 mm 4 m/S 735 mmHg 91%
08:00 -2°C° 0 mm 4 m/S 735 mmHg 91%
09:00 -2°C° 0 mm 4 m/S 735 mmHg 91%
10:00 -1°C° 0 mm 4 m/S 735 mmHg 92%
11:00 -1°C° 0 mm 5 m/S 736 mmHg 92%
12:00 0°C° 0 mm 4 m/S 736 mmHg 91%
13:00 0°C° 0 mm 4 m/S 736 mmHg 90%
14:00 0°C° 0 mm 4 m/S 736 mmHg 88%
15:00 0°C° 0 mm 4 m/S 736 mmHg 89%
16:00 0°C° 0 mm 4 m/S 736 mmHg 89%
17:00 0°C° 0 mm 4 m/S 736 mmHg 90%
18:00 -1°C° 0 mm 4 m/S 736 mmHg 91%
19:00 -1°C° 0 mm 5 m/S 736 mmHg 92%
20:00 -1°C° 0 mm 5 m/S 736 mmHg 93%
21:00 -1°C° 0 mm 5 m/S 736 mmHg 94%
22:00 -1°C° 0 mm 5 m/S 736 mmHg 94%
23:00 -1°C° 0 mm 5 m/S 736 mmHg 95%
Mehr zeigen

Wir brauchen deine Erlaubnis

Meteoprog und unser Service Anbieter werden persönliche Daten aufbewahren, so wie Cookies, Geräte Bezeichnung oder ähnliche Technologien von deinem Gerät und Prozess, so wie Persönliche Daten Inhalte und Werbungen, genauso wie social Media und den Verkehr zu analysieren.

  • Aufbewahrung und/oder Zugang zu deiner Geräte Informationen.

    Cookies, Geräte Bezeichnung oder andere Informationen, können aufbewahrt oder Zugang zu deinem Gerät erhalten, für den Grund, der oben angegeben wird.

  • Personalisierte Werbung und Inhalte, Messungen, Einblick in das Publikum und Produkt Entwicklung.

    Werbungen und Inhalte können personalisiert werden, basierend auf ein Profil. Mehr Daten können besser personalisierte Werbungen und Inhalte hinzufügen. Werbung und Inhalte können gezeigt und gemessen werden. Einblicke über das Publikum, welche die Werbung gesehen haben und den Inhalt, können abgeleitet werden. So wie Daten können genutzt werden, um es zu verbessern oder die Benutzer Erfahrung zu verbessern das System und die Software.

Wenn du “Ich stimme zu” klickst, erlaubst du uns, die Cookies zu benutzen die Geräte Bezeichnung, den Web oder ähnliche Technologien zu benutzen. Deine Settings, können in deinem Gerät bei deinem Browser geändert werden.

Für den bestimmten Zweck, berechtigten Interessen beruhen darauf, mehr als auf den Inhalt. Du kannst mehr darüber in unseren Privaten und Cookie Politik lesen.